EA1HLH-13 Weather Reports


time (UTC)temp
C
wind
direction
speed
KPH
gust
KPH
rain 1hr
cm
rain 24hr
cm
rain mn
cm
humidity
%
barometer
mb
20260503191220 12 316 0.0 1.6 0.00 0.41 0.38 88 1013.2
20260503190720 12 289 1.6 4.8 0.00 0.41 0.38 88 1013.1
20260503190220 12 291 3.2 4.8 0.00 0.41 0.38 88 1013.2
20260503185720 12 292 3.2 4.8 0.00 0.41 0.38 88 1013.1
20260503185220 12 296 4.8 8.0 0.00 0.41 0.38 88 1013.2
20260503184720 12 288 4.8 8.0 0.00 0.41 0.38 87 1013.2
20260503184220 13 294 4.8 11.3 0.00 0.41 0.38 86 1013.1
20260503183720 13 312 3.2 4.8 0.00 0.41 0.38 87 1013.1
20260503183219 13 290 1.6 4.8 0.00 0.41 0.38 87 1013.2
20260503182719 13 296 3.2 4.8 0.00 0.41 0.38 86 1013.2
20260503182219 13 291 4.8 9.7 0.00 0.41 0.38 87 1013.2
20260503181719 13 305 4.8 8.0 0.00 0.41 0.38 86 1013.1
20260503181219 13 293 3.2 4.8 0.00 0.43 0.38 86 1013.1
20260503180719 13 304 3.2 4.8 0.00 0.51 0.38 86 1013.1
20260503180219 13 320 4.8 9.7 0.00 0.58 0.38 85 1013.1
20260503175719 13 291 9.7 11.3 0.00 0.61 0.38 84 1013.1
20260503175220 13 309 3.2 4.8 0.00 0.61 0.38 85 1013.0
20260503174720 13 292 4.8 14.5 0.00 0.64 0.38 85 1013.0
20260503174220 13 281 3.2 9.7 0.00 0.69 0.38 86 1013.0
20260503173720 13 301 3.2 4.8 0.00 0.69 0.38 86 1013.0
20260503173220 13 291 4.8 12.9 0.00 0.79 0.38 85 1013.0
20260503172720 13 293 3.2 11.3 0.00 0.81 0.38 86 1012.9
20260503172220 13 338 4.8 4.8 0.00 0.81 0.38 86 1012.9
20260503171720 13 308 3.2 4.8 0.00 0.81 0.38 85 1012.9
20260503171220 14 295 11.3 12.9 0.00 0.81 0.38 84 1012.8
20260503170719 14 297 4.8 9.7 0.00 0.81 0.38 86 1012.8
20260503170219 13 331 1.6 4.8 0.00 0.81 0.38 86 1012.8
20260503150720 14 291 11.3 12.9 0.00 1.80 0.38 81 1012.5
20260503150220 14 292 9.7 12.9 0.00 1.80 0.38 83 1012.6
20260503140219 15 293 11.3 16.1 0.00 1.93 0.38 81 1012.8
20260503131219 14 65 3.2 4.8 0.00 2.59 0.38 82 1012.8
20260503130720 14 292 11.3 14.5 0.00 2.62 0.38 83 1012.8
20260503130220 13 284 4.8 8.0 0.00 2.62 0.38 82 1012.8
20260503120219 13 19 1.6 4.8 0.00 3.33 0.38 86 1013.0
20260503110719 13 290 3.2 4.8 0.00 3.33 0.38 90 1013.2
20260503110221 13 314 3.2 4.8 0.00 3.33 0.38 89 1013.1
20260503100220 12 285 4.8 8.0 0.03 3.35 0.38 99 1013.0
20260503090219 11 356 0.0 1.6 0.03 3.33 0.36 99 1012.8
20260503081219 11 266 0.0 3.2 0.00 3.45 0.33 99 1013.0
20260503080719 11 44 0.0 0.0 0.00 3.48 0.33 99 1013.0
20260503080219 11 347 0.0 1.6 0.00 3.51 0.33 99 1012.9
20260503072720 11 139 0.0 1.6 0.00 3.63 0.33 99 1012.9
20260503072219 11 127 1.6 1.6 0.00 3.63 0.33 99 1012.7
20260503071719 11 183 0.0 1.6 0.00 3.63 0.33 99 1012.8
20260503071219 11 133 1.6 3.2 0.00 3.66 0.33 99 1012.7
20260503070719 11 111 1.6 3.2 0.00 3.66 0.33 99 1012.6
20260503070219 11 150 0.0 0.0 0.00 3.71 0.33 99 1012.6
20260503060220 11 143 0.0 0.0 0.05 3.81 0.33 99 1012.2
20260503054720 11 143 0.0 0.0 0.05 3.81 0.33 99 1012.3
20260503054220 11 143 0.0 0.0 0.05 3.89 0.33 99 1012.3
20260503053720 11 143 0.0 0.0 0.05 3.91 0.33 99 1012.3
20260503053220 11 143 0.0 0.0 0.05 3.91 0.33 99 1012.2
20260503052720 11 143 0.0 0.0 0.05 3.91 0.33 99 1012.3
20260503052220 11 143 0.0 0.0 0.05 3.91 0.33 99 1012.3
20260503051719 11 143 0.0 0.0 0.05 3.91 0.33 99 1012.2
20260503051219 11 143 0.0 0.0 0.05 3.91 0.33 99 1012.2
20260503050719 11 210 0.0 0.0 0.03 3.89 0.30 99 1012.1
20260503050221 11 212 0.0 0.0 0.03 3.89 0.30 99 1012.1
20260503045720 11 212 0.0 0.0 0.00 3.86 0.28 99 1012.2
20260503045220 11 212 0.0 0.0 0.00 3.86 0.28 99 1012.1
20260503044720 11 212 0.0 0.0 0.00 3.86 0.28 99 1012.2
20260503044220 11 212 0.0 0.0 0.00 3.86 0.28 99 1012.1
20260503043720 11 212 0.0 0.0 0.00 3.86 0.28 99 1012.2
20260503043220 11 198 0.0 0.0 0.00 3.86 0.28 99 1012.2
20260503042720 11 198 0.0 0.0 0.00 3.86 0.28 99 1012.2
20260503042220 11 198 0.0 0.0 0.00 3.86 0.28 99 1012.2
20260503041720 11 198 0.0 0.0 0.00 3.86 0.28 99 1012.3
20260503041220 11 198 0.0 0.0 0.00 3.86 0.28 99 1012.3
20260503040720 11 198 0.0 0.0 0.00 3.86 0.28 99 1012.3
20260503040220 11 198 0.0 0.0 0.00 3.86 0.28 99 1012.3
20260503035719 11 198 0.0 0.0 0.00 3.86 0.28 99 1012.3
20260503035219 11 198 0.0 0.0 0.00 3.86 0.28 99 1012.4
20260503034719 11 198 0.0 0.0 0.00 3.86 0.28 99 1012.3
20260503034219 11 198 0.0 0.0 0.00 3.86 0.28 99 1012.4
20260503033721 11 198 0.0 0.0 0.00 3.86 0.28 99 1012.4
20260503033220 11 198 0.0 0.0 0.00 3.86 0.28 99 1012.5
20260503032720 11 198 0.0 0.0 0.00 3.86 0.28 99 1012.5
20260503032220 11 133 0.0 1.6 0.00 3.86 0.28 99 1012.5
20260503031719 11 124 0.0 0.0 0.00 3.86 0.28 99 1012.5
20260503031219 11 124 0.0 0.0 0.00 3.86 0.28 99 1012.5
20260503030719 11 106 0.0 0.0 0.00 3.86 0.28 99 1012.6
20260503030219 11 150 0.0 0.0 0.00 3.86 0.28 99 1012.6
20260503025721 11 150 0.0 0.0 0.00 3.86 0.28 99 1012.6
20260503025220 11 150 0.0 0.0 0.00 3.86 0.28 99 1012.7
20260503024720 11 150 0.0 0.0 0.00 3.86 0.28 99 1012.7
20260503024219 11 150 0.0 0.0 0.00 3.86 0.28 99 1012.6
20260503023719 11 135 0.0 0.0 0.00 3.86 0.28 99 1012.6
20260503023219 11 124 0.0 0.0 0.00 3.86 0.28 99 1012.6
20260503022719 11 207 0.0 0.0 0.00 3.86 0.28 99 1012.6
20260503022219 11 207 0.0 0.0 0.00 3.86 0.28 99 1012.6
20260503021719 11 207 0.0 0.0 0.00 3.86 0.28 99 1012.7
20260503021219 11 207 0.0 0.0 0.00 3.86 0.28 99 1012.8
20260503020721 11 207 0.0 0.0 0.00 3.86 0.28 99 1012.7
20260503020220 11 207 0.0 0.0 0.00 3.86 0.28 99 1012.8
20260503015720 11 207 0.0 0.0 0.00 3.86 0.28 99 1012.7
20260503015220 11 207 0.0 0.0 0.03 3.86 0.28 99 1012.9
20260503014720 11 207 0.0 0.0 0.05 3.86 0.28 99 1012.9
20260503014220 11 207 0.0 0.0 0.08 3.86 0.28 99 1013.0
20260503013720 11 207 0.0 0.0 0.08 3.86 0.28 99 1013.0
20260503013220 11 207 0.0 0.0 0.08 3.86 0.28 99 1013.0
20260503012720 11 207 0.0 0.0 0.08 3.86 0.28 99 1013.1
20260503012219 11 207 0.0 0.0 0.08 3.86 0.28 99 1013.1
20260503011719 11 207 0.0 0.0 0.08 3.86 0.28 99 1013.2
20260503011219 11 207 0.0 0.0 0.08 3.86 0.28 99 1013.2
20260503010719 11 207 0.0 0.0 0.08 3.86 0.28 99 1013.3
20260503010219 11 207 0.0 0.0 0.08 3.86 0.28 99 1013.3
20260503005719 11 208 0.0 0.0 0.08 3.86 0.28 99 1013.3
20260503005219 11 288 1.6 1.6 0.05 3.84 0.25 99 1013.3
20260503004719 11 255 1.6 3.2 0.05 3.81 0.23 99 1013.4
20260503004219 11 274 1.6 1.6 0.00 3.78 0.20 99 1013.5
20260503003719 12 264 1.6 3.2 0.00 3.78 0.20 99 1013.4
20260503003221 12 266 0.0 1.6 0.00 3.78 0.20 99 1013.5
20260503002721 12 271 0.0 3.2 0.00 3.78 0.20 99 1013.5
20260503002221 12 269 1.6 3.2 0.00 3.78 0.20 99 1013.5
20260503001720 12 252 0.0 1.6 0.00 3.78 0.20 99 1013.5
20260503001220 12 252 0.0 0.0 0.00 3.78 0.20 99 1013.7
20260503000720 12 252 0.0 0.0 0.00 3.78 0.20 99 1013.7
20260503000220 12 252 0.0 0.0 0.00 3.78 0.20 99 1013.7
20260502235720 12 252 0.0 0.0 0.03 3.78 0.20 99 1013.7
20260502235220 12 252 0.0 0.0 0.03 3.78 0.20 99 1013.8
20260502234720 12 252 0.0 0.0 0.03 3.78 0.20 99 1013.8
20260502234220 12 252 0.0 0.0 0.03 3.78 0.20 99 1013.8
20260502233719 12 252 0.0 0.0 0.03 3.78 0.20 99 1013.9
20260502233219 12 252 0.0 0.0 0.05 3.78 0.20 99 1013.9
20260502232719 12 252 0.0 0.0 0.10 3.78 0.20 99 1013.9
20260502232219 12 253 0.0 0.0 0.15 3.78 0.20 99 1013.8
20260502231719 12 262 0.0 0.0 0.15 3.78 0.20 99 1013.9
20260502231220 12 262 0.0 0.0 0.20 3.78 0.20 99 1013.9
20260502230720 12 262 0.0 0.0 0.20 3.78 0.20 99 1014.0
20260502230220 12 266 0.0 0.0 0.20 3.78 0.20 99 1014.0
20260502225720 12 266 0.0 0.0 0.00 3.76 0.18 99 1014.0
20260502225219 12 266 0.0 0.0 0.00 3.76 0.18 99 1014.0
20260502224719 12 266 0.0 0.0 0.00 3.76 0.18 99 1014.0
20260502224220 12 266 0.0 0.0 0.00 3.76 0.18 99 1014.0
20260502223720 12 265 0.0 0.0 0.00 3.76 0.18 99 1014.0
20260502223220 12 261 0.0 0.0 0.00 3.73 0.15 99 1014.1
20260502222720 12 261 0.0 0.0 0.00 3.68 0.10 99 1014.1
20260502222220 12 256 1.6 1.6 0.00 3.63 0.05 99 1014.0
20260502221720 12 271 3.2 3.2 0.00 3.63 0.05 99 1014.1
20260502221220 12 287 1.6 3.2 0.00 3.58 0.00 99 1014.1
20260502220720 12 271 0.0 1.6 0.00 3.58 0.00 99 1014.0
20260502220220 12 164 0.0 0.0 0.00 3.58 0.00 99 1014.0
20260502215720 12 136 0.0 0.0 0.03 3.58 3.58 99 1014.1
20260502215220 12 136 0.0 0.0 0.03 3.58 3.58 99 1014.2
20260502214720 12 136 0.0 0.0 0.00 3.56 3.56 99 1014.2
20260502214220 12 136 0.0 0.0 0.00 3.56 3.56 99 1014.2
20260502213720 12 136 0.0 0.0 0.00 3.56 3.56 99 1014.2
20260502213220 12 136 0.0 0.0 0.00 3.56 3.56 99 1014.2
20260502212720 12 136 0.0 0.0 0.00 3.56 3.56 99 1014.2
20260502212220 12 136 0.0 0.0 0.00 3.56 3.56 99 1014.2
20260502211719 12 136 0.0 0.0 0.00 3.56 3.56 99 1014.1
20260502211219 12 136 0.0 0.0 0.00 3.56 3.56 99 1014.2
20260502210719 12 135 0.0 1.6 0.00 3.56 3.56 99 1014.2
20260502210219 12 136 0.0 0.0 0.00 3.56 3.56 99 1014.1
20260502205719 12 136 0.0 0.0 0.00 3.56 3.56 99 1014.1
20260502205219 12 136 0.0 0.0 0.00 3.56 3.56 99 1014.1
20260502204719 12 136 0.0 0.0 0.00 3.56 3.56 99 1014.1
20260502204221 12 136 0.0 0.0 0.00 3.56 3.56 99 1014.1
20260502203720 12 280 0.0 0.0 0.00 3.56 3.56 99 1014.0
20260502203220 12 278 0.0 0.0 0.00 3.56 3.56 99 1014.1
20260502202720 12 278 0.0 0.0 0.00 3.56 3.56 99 1014.0
20260502202220 12 277 0.0 0.0 0.00 3.56 3.56 99 1013.9
20260502201720 12 277 0.0 0.0 0.00 3.56 3.56 99 1013.9
20260502201219 12 277 0.0 0.0 0.00 3.56 3.56 99 1013.8
20260502200719 12 277 0.0 0.0 0.00 3.56 3.56 99 1013.7
20260502200221 12 277 0.0 0.0 0.00 3.56 3.56 99 1013.6
20260502195721 12 277 0.0 0.0 0.00 3.56 3.56 99 1013.7
20260502195220 12 277 0.0 0.0 0.00 3.56 3.56 99 1013.8
20260502194720 12 277 0.0 0.0 0.00 3.56 3.56 99 1013.8
20260502194219 12 277 0.0 0.0 0.00 3.56 3.56 99 1013.7
20260502193719 12 277 0.0 0.0 0.00 3.56 3.56 99 1013.7
20260502193219 12 278 0.0 0.0 0.00 3.56 3.56 99 1013.7
20260502192719 12 278 0.0 0.0 0.00 3.56 3.56 99 1013.7
20260502192219 12 276 0.0 4.8 0.00 3.56 3.56 99 1013.6
20260502191720 12 278 0.0 1.6 0.00 3.56 3.56 99 1013.7